RH
24 25 26 27 27 29 30 30 28 27 27 27 25 26 27 25 27 28 28 27 28 28 26 23 22 24 24 28 28 32 27 45 32
26 25 23 23 24 24 24 24 25 27 29 30 30 30 32 30 32 33 31 32 34 34 32 31 28 26 25 24 25 28 28 27 23
38 42 44 45 46 46 47 47 46 45 43 42 43 44 45 43 43 41 40 39 37 35 32 32 34 34 31 32 31 28 28 28 28
44 46 47 48 48 48 48 48 48 48 48 48 48 49 49 49 50 50 50 50 49 48 47 45 42 41 41 36 34 36 36 33 31
46 47 47 47 47 47 47 47 47 48 48 48 48 49 49 49 49 50 50 50 51 51 51 51 51 50 47 45 43 37 36 35 33
45 46 46 46 46 46 46 47 47 48 48 49 49 50 50 50 51 51 51 51 51 51 52 52 53 53 53 52 49 46 42 38 36
45 45 45 46 46 46 47 47 48 48 49 49 50 50 51 52 53 54 53 53 53 53 53 53 54 54 54 54 54 53 52 51 43
43 44 44 45 46 46 47 47 48 48 49 49 51 53 56 57 57 56 55 54 55 56 58 57 57 56 56 56 56 56 56 55 56
40 40 42 43 44 45 46 47 47 48 50 53 56 56 57 54 45 37 36 35 36 38 44 57 62 62 62 60 59 59 59 58 57
41 43 44 46 46 47 47 47 48 49 52 52 51 49 41 36 36 36 35 36 37 37 36 36 40 53 61 64 65 66 66 64 62
35 35 34 33 34 36 38 38 43 45 47 49 46 40 39 41 42 43 44 44 45 45 44 43 41 41 44 47 50 56 66 67 66
29 30 30 30 29 28 26 28 34 41 45 45 42 41 44 46 48 51 53 55 57 56 48 48 45 41 42 45 47 49 54 63 67
36 38 39 39 39 37 32 30 32 36 40 42 44 45 48 52 57 60 63 66 65 55 39 36 38 41 40 48 57 60 59 61 66
40 42 42 42 43 42 35 32 30 31 35 37 42 53 56 57 59 60 67 70 50 28 23 24 36 40 39 58 66 69 64 66 67
39 41 43 42 41 40 36 32 30 32 32 37 37 44 49 47 45 45 42 32 24 26 35 42 42 43 54 67 68 72 73 69 78
32 32 31 31 31 32 33 36 36 37 34 33 39 35 38 37 19 20 22 28 31 35 52 46 39 39 39 48 63 68 71 61 67
24 23 24 26 26 26 29 29 32 27 24 21 26 26 26 33 26 24 26 23 25 33 30 44 58 56 55 51 48 51 54 57 55
27 27 26 24 22 22 23 25 24 20 20 21 23 37 39 47 40 26 19 20 26 28 31 46 48 43 36 28 26 26 32 37 40
26 22 18 16 15 14 15 16 17 18 18 21 22 26 29 30 26 26 24 35 46 41 48 43 39 26 26 23 21 27 28 30 33
23 20 18 14 12 12 13 14 16 18 22 23 22 21 20 22 25 30 49 57 48 46 47 42 31 27 23 24 27 30 31 32 34
Wind_Speed
15 14 13 14 13 13 12 12 11 11 11 11 10 11 11 10 12 12 11 11 12 12 12 11 10 10 9 9 9 8 7 6 6
15 15 15 14 15 14 14 13 12 12 13 13 12 13 13 12 13 12 12 12 13 13 13 13 13 12 11 10 9 9 9 9 9
13 14 14 15 15 15 15 14 14 13 13 12 12 12 12 12 11 11 11 11 12 12 12 12 13 13 12 12 12 11 11 10 10
11 10 11 11 10 10 9 9 9 8 8 8 9 9 9 10 10 10 10 11 11 12 12 13 13 13 13 13 12 11 11 11 11
4 4 4 4 4 3 3 3 4 4 6 7 8 9 10 10 11 12 12 13 13 13 13 13 13 13 13 13 13 13 13 13 12
2 2 3 3 3 4 4 5 6 7 8 9 10 11 12 13 14 15 15 16 16 16 16 16 15 15 15 14 14 14 14 14 14
8 8 9 8 9 9 9 10 10 10 11 12 13 14 15 16 17 18 19 19 19 19 19 19 18 18 18 18 17 16 16 16 16
13 13 13 13 13 13 13 13 13 13 14 14 15 16 17 18 19 20 20 21 21 21 21 21 21 20 20 20 20 19 18 18 17
16 16 16 15 15 16 15 15 15 15 16 16 17 17 18 19 20 22 22 22 23 23 22 22 23 23 23 22 22 22 21 21 20
16 16 17 17 18 17 17 17 18 18 18 18 18 19 19 20 21 22 23 24 24 24 25 25 24 25 24 24 24 24 24 23 23
17 16 17 18 18 18 18 19 19 19 19 19 20 21 22 22 23 24 25 24 25 26 27 27 27 27 27 26 27 26 26 26 26
16 16 17 18 18 19 19 20 20 20 21 22 23 24 25 26 26 27 27 28 27 29 29 29 30 30 30 30 29 28 25 26 27
18 19 20 21 21 20 20 21 22 23 24 25 27 28 29 30 30 30 30 31 32 34 33 34 34 33 33 32 32 31 29 28 27
22 23 23 24 24 23 24 24 25 26 27 29 30 31 33 33 33 33 34 36 37 38 37 33 32 33 33 33 33 32 33 32 30
26 26 26 27 28 27 28 28 28 29 30 33 34 35 36 36 35 35 36 38 39 34 32 31 29 30 32 33 33 33 32 31 31
27 28 28 29 29 29 30 31 31 32 34 35 34 35 35 36 35 35 34 33 32 29 28 29 29 30 30 31 33 34 34 33 32
28 29 30 31 32 32 33 34 36 36 34 36 36 38 35 34 37 32 30 29 26 28 26 25 25 26 27 29 28 31 34 33 32
31 31 33 34 34 34 34 36 37 37 35 34 35 34 35 35 34 32 28 29 28 28 26 25 27 28 30 31 31 31 31 32 33
32 32 33 34 35 36 36 36 36 37 36 35 33 32 34 34 35 34 31 28 27 27 26 27 29 29 30 30 28 28 30 32 33
33 34 35 36 36 35 34 34 34 33 33 32 32 31 32 33 35 37 33 31 29 26 27 27 29 29 29 27 28 29 31 30 32
Wind_Direction
92 93 92 90 86 81 80 77 73 72 71 68 62 58 55 46 48 48 41 37 33 31 27 20 14 12 8 5 359 358 356 5 353
93 93 92 91 89 87 85 83 80 77 74 71 65 59 54 47 46 39 34 30 26 26 24 22 19 11 3 357 349 348 345 346 338
92 91 90 86 83 79 74 72 70 68 65 62 58 53 47 40 36 30 25 21 18 16 14 13 11 10 7 2 356 349 340 336 334
80 83 83 83 81 78 75 68 61 52 44 36 28 23 15 10 6 2 2 360 358 359 360 1 360 359 359 357 352 344 338 335 331
104 95 95 98 92 88 67 29 12 5 355 351 351 345 340 338 333 333 332 332 332 334 336 337 340 344 346 345 344 340 334 328 325
231 233 243 261 273 287 290 293 301 304 309 312 316 317 320 321 320 321 319 320 320 320 319 320 322 323 326 327 329 328 327 326 324
269 272 275 277 280 282 283 283 287 294 296 301 307 309 310 311 313 315 315 313 313 312 311 311 312 312 313 312 314 316 318 321 322
270 272 275 276 278 278 280 283 289 293 296 299 302 303 306 309 309 310 310 309 308 307 307 307 306 305 303 302 303 304 307 309 309
270 271 273 276 278 280 283 287 290 291 292 294 296 299 302 304 307 309 309 308 307 307 306 304 303 301 299 300 300 300 299 299 302
271 274 276 278 279 281 285 289 289 290 291 293 294 296 299 303 306 307 309 309 309 309 307 304 300 298 298 298 297 296 295 296 297
273 276 278 279 281 284 286 287 288 290 291 293 294 295 299 302 304 306 307 306 306 307 307 304 301 298 296 295 293 292 294 295 294
275 278 282 286 290 290 290 289 290 290 290 291 292 295 298 300 302 302 303 302 301 304 303 300 298 298 297 295 294 294 294 294 294
276 280 283 286 290 289 289 289 289 289 290 291 292 293 294 296 298 300 300 298 299 298 297 297 296 295 294 293 294 295 295 295 294
274 278 282 285 286 286 287 288 288 289 290 290 290 291 293 295 297 298 298 297 298 298 299 295 291 291 290 290 292 294 296 298 296
275 278 280 282 285 285 286 286 287 288 286 287 289 292 291 293 294 295 295 297 297 300 297 294 290 286 286 288 290 291 292 293 291
276 279 281 281 282 283 283 284 284 285 286 288 289 289 292 294 296 294 295 294 295 296 293 293 292 291 285 283 286 287 287 287 288
277 279 279 281 281 281 281 283 284 284 286 288 290 291 290 294 294 299 299 295 292 290 290 291 289 290 290 289 285 282 284 286 284
276 278 279 280 281 281 282 282 283 284 284 285 287 290 293 294 298 297 295 293 294 293 293 290 288 289 288 288 286 285 284 284 284
275 276 277 278 280 281 281 281 282 284 286 286 287 286 288 289 290 289 291 290 291 293 293 291 292 291 292 290 290 290 289 286 286
275 276 278 280 281 282 281 281 281 282 283 284 286 285 284 285 287 289 292 296 296 295 291 293 294 294 289 289 291 291 291 288 287